Regional Weather Roundup
Issued by NWS

Home | Current Version | Previous Version | Text Only | Print | Product List | Glossary On
Versions: 1 2 3 4 5 6 7 8 9 10 11 12 13 14 15 16 17 18 19 20 21 22 23 24 25 26 27 28
000
ASUS45 KBOI 210610
RWRID

IDAHO REGIONAL WEATHER ROUNDUP
NATIONAL WEATHER SERVICE BOISE ID
1200 AM MDT SAT APR 21 2018

NOTE: "FAIR" INDICATES FEW OR NO CLOUDS BELOW 12000 FEET
WITH NO SIGNIFICANT WEATHER AND/OR OBSTRUCTIONS TO VISIBILITY

IDZ012-014-210700-
SOUTHWEST IDAHO


CITY           SKY/WX    TMP DP  RH WIND       PRES   REMARKS
BOISE          CLEAR     49  31  49 CALM      30.10R
CALDWELL       CLEAR     45  31  58 CALM      30.10R
MOUNTAIN HOME  CLEAR     46  25  44 CALM      30.11R
$$

IDZ016-017-210700-
SOUTHCENTRAL IDAHO


CITY           SKY/WX    TMP DP  RH WIND       PRES   REMARKS
BURLEY         CLEAR     47  21  35 SW13      30.12R
JEROME         CLEAR     45  25  45 S9        30.13R
TWIN FALLS     CLEAR     46  25  43 S18       30.14R
$$

IDZ019>023-210700-
SOUTHEAST IDAHO


CITY           SKY/WX    TMP DP  RH WIND       PRES   REMARKS
IDAHO FALLS    CLEAR     49  25  39 S3        30.11R
POCATELLO      CLEAR     51  28  41 SW16      30.13R
REXBURG        CLEAR     43  28  55 NE3       30.09S
$$

IDZ006-010-011-018-031-032-210700-
CENTRAL IDAHO MOUNTAINS


CITY           SKY/WX    TMP DP  RH WIND       PRES   REMARKS
MCCALL         CLEAR     38  29  70 NW6       30.14S WCI  33
STANLEY          N/A     34  22  61 S3        30.19R
SALMON         CLEAR     42  28  57 CALM      30.12
CHALLIS        CLEAR     43  22  43 S3        30.12R
$$

IDZ002-004-006-007-026-210700-
NORTHERN IDAHO


CITY           SKY/WX    TMP DP  RH WIND       PRES   REMARKS
LEWISTON       CLEAR     53  40  61 CALM      30.10S
LOWELL           N/A     46  39  76 N5        30.15R
COEUR D`ALENE  MOCLDY    49  38  65 SE5       30.09F
MULLAN PASS    CLEAR     39  29  67 SW7       30.13F WCI  34
$$




USA.gov is the U.S. government's official web portal to all federal, state and local government web resources and services.